www.pogodaiklimat.ru

Погода и климат >> Архив погоды >> Иран >> Ilam


ПОГОДА в Ilam

  • Прогноз погоды в Ilam
  • Монитор погоды в Ilam
  • Климат города

АРХИВ ПОГОДЫ в Ilam

Время (UTC), дата Ветер
(напр.,м/с)
 
Видим.   Явления Облачность Т
(С)
Тd
(С)
f
(%)
Тe
(С)
Тes
(С)
Комфортность P
(гПа)
Po
(гПа)
Тmin
(С)
Tmax
(С)
R
(мм)
S
(см)
15 14.02 Ю 4 8000 м дымка {дождь} 9/6 900 м
[Cb calv As op]
+6.0 +3.0 81 +2 +2 1022.3 869.9 +8.0
18 14.02 ЮВ 3 10 км 9/6 900 м
[Cb calv As op]
+5.2 +3.0 86 +2 +2 1023.4 870.9
21 14.02 ЮВ 2 10 км 10/6 900 м
[Cb calv As op]
+5.2 +3.0 86 +3 +3 1022.4 870.3
00 15.02 ЮВ 1 8000 м слабый дождь 10/8 900 м
[Cb calv As op]
+5.2 +4.9 98 +4 +4 1020.6 869.6 0.6
03 15.02 ЮВ 6 8000 м слабый дождь 10/8 900 м
[Cb calv As op]
+4.6 1019.5 868.6 +4.3
06 15.02 ЮВ 3 7000 м мгла {дождь} 10/8 900 м
[Cb calv As trans]
+6.2 +2.5 77 +3 +3 1019.9 868.5 3
09 15.02 Ю 5 8000 м мгла {дождь} 9/8 900 м
[Cb calv Ac As]
+7.6 -0.1 58 +4 +5 1018.9 868.0
12 15.02 ЮВ 6 7000 м мгла 10/8 900 м
[Cb calv As trans]
+8.4 +0.9 59 +5 +5 1014.3 864.3 0.3
15 15.02 ЮВ 5 6000 м слабый дождь 10/8 750 м
[Cb calv As op]
+6.9 +4.4 84 +3 +3 1014.2 863.8 +9.4
18 15.02 ЮВ 5 7000 м слабый дождь 10/8 750 м
[Cb calv As op]
+5.6 +3.9 89 +1 +1 1014.0 863.7 3
21 15.02 СЗ 3 7000 м дымка {дождь} 9/8 900 м
[Cb calv Ac As]
+3.6 +3.5 99 -1 -1 1015.5 864.8
00 16.02 В 1 7000 м дымка 8/5 900 м
[Cb calv Ac As]
+1.1 +0.5 96 -1 -1 1015.8 864.6 3
03 16.02 В 1 8000 м дымка 3/3 1200 м
[Sc]
-0.8 -1.2 97 -3 -3 1017.0 864.7 -1.4
06 16.02 Ю 1 10 км 1/1 1350 м
[Cu hum]
+4.4 -1.8 64 +3 +9 1017.6 866.1
09 16.02 ЮЗ 6 12 км 8/3 1350 м
[Sc Ac As]
+5.6 -4.3 49 +1 +3 1018.1 866.2
12 16.02 ЮЗ 5 12 км 4/1 1350 м
[Cu hum Ac As]
+6.3 -6.6 39 +3 +4 1017.2 865.1
15 16.02 ЮЗ 2 10 км 5/1 1200 м
[Cu hum Ci fib]
+2.5 -3.6 64 -0 -0 1019.2 865.4 +6.6
18 16.02 штиль 0 10 км 4/0
[Ci fib]
-0.3 -2.7 84 -1 -1 1018.3 865.3
21 16.02 В 2 10 км ясно -1.2 -2.6 90 -5 -5 1017.4 865.2
00 17.02 ЮВ 2 10 км ясно -1.2 -3.2 86 -5 -5 1016.7 864.1
03 17.02 ЮВ 2 10 км 8/3 1200 м
[Sc Ac As]
-0.7 -3.4 82 -4 -4 1016.3 862.9 -2.1
06 17.02 ЮВ 1 100 м сильный снег 10/8 900 м
[Cb calv As op]
+0.1 +0.1 100 -2 -2 1018.3 864.2 0.6 1
09 17.02 ЮВ 2 4000 м дымка {снег} 10/10 450 м
[Cb calv As op]
+1.5 +1.5 100 -2 -2 1017.8 864.0
12 17.02 Ю 1 7000 м дымка {снег, дождь} 10/10 450 м
[Cb calv As op]
+1.9 +1.0 94 0 0 1016.4 862.9 2
15 17.02 З 3 12 км 6/3 450 м
[Frnb Ac As]
-1.6 -3.6 86 -7 -7 1018.6 863.9 +2.2
18 17.02 ЮЗ 1 10 км ясно -3.7 -6.3 82 -6 -6 1021.0 865.5 0.3
21 17.02 В 2 10 км ясно -5.5 -7.6 85 -10 -10 1021.3 865.9
00 18.02 штиль 0 10 км ясно -5.8 -7.6 87 -7 -7 1022.0 866.3
03 18.02 В 2 10 км ясно -9.0 -11.8 80 -13 -13 1025.6 867.5 -9.2
06 18.02 ЮВ 1 11 км ясно -0.8 -10.7 47 -2 +4 1027.4 870.7
09 18.02 ЮЗ 1 12 км 1/1 1350 м
[Cu hum]
+2.7 -8.6 43 +2 +14 опасность
простуды
1028.6 872.1
12 18.02 С 2 12 км ясно +3.7 -11.9 31 +2 +6 1028.6 872.2
15 18.02 З 2 10 км ясно +1.3 -5.6 60 -2 -2 1031.7 873.5 +5.1
18 18.02 СВ 1 10 км ясно -1.8 -4.5 82 -4 -4 1031.8 875.0
21 18.02 СЗ 1 10 км ясно -3.2 -5.5 84 -5 -5 875.3
03 19.02 В 2 10 км ясно -5.7 -10.1 71 -10 -10 1031.7 874.3 -6.3
06 19.02 ЮВ 3 10 км ясно +1.6 -8.2 48 -2 +3 1032.4 875.9
09 19.02 Ю 1 10 км ясно +7.4 -9.5 29 +7 +21 опасность
простуды
1030.6 875.5
12 19.02 З 3 10 км ясно +9.7 -7.5 29 +8 +12 1028.1 873.7
15 19.02 С 2 10 км ясно +3.8 -3.9 57 +1 +1 1030.8 874.3 +10.2
18 19.02 В 2 10 км ясно +0.4 -5.0 67 -3 -3 1029.9 874.5
21 19.02 В 2 10 км ясно -1.7 -8.7 59 -5 -5 874.0
03 20.02 В 2 10 км ясно -3.2 -11.4 53 -7 -7 1029.2 873.5 -4.1
06 20.02 ЮВ 2 12 км ясно +5.1 -8.4 37 +3 +9 1028.1 873.7
09 20.02 ЮВ 2 12 км ясно +11.1 -11.0 20 +11 +22 опасность
простуды
1025.7 872.8
12 20.02 З 4 12 км ясно +11.8 -4.8 31 +10 +14 1023.5 870.7
15 20.02 СЗ 3 10 км ясно +6.7 -4.4 45 +4 +4 1024.7 870.5 +13.0
18 20.02 В 2 10 км ясно +1.8 -3.5 68 -1 -1 1023.8 870.5
21 20.02 В 2 10 км ясно -0.1 -5.7 66 -3 -3 870.1
00 21.02 В 2 10 км ясно -0.8 -7.6 60 -4 -4 1021.0 869.1
03 21.02 ЮВ 2 10 км ясно -0.7 -7.9 58 -4 -4 1021.8 868.5 -2.4
06 21.02 В 2 10 км ясно +5.7 -6.5 41 +4 +10 1022.1 869.3
09 21.02 ЮВ 3 10 км 4/0
[Ci fib]
+10.8 -6.5 29 +10 +18 1020.4 868.6

 

Местоположение метеостанции Ilam (Иран): широта 33.63 долгота 46.43 высота над уровнем моря 1337 м.

В архиве по умолчанию представлена погода в Ilam за последнюю неделю. Архивные данные за месяц целиком и за предыдущие месяцы, начиная с января 2011 года, Вы можете получить, выбрав интересующий диапазон дат из раскрывающегося списка и нажав кнопку "Ввод!".

Внимание! Время в таблицах - всемирное. Для получения местного времени необходимо прибавить поправку, которая в Ilam равна 3.5 ч.

Смотрите также архив погоды в соседних городах и на ближайших метеорологических станциях:

Погода в Badrah (Ирак) (74 км)
Погода в Kermanshah (Иран) (95 км)
Погода в Khanaqin (Ирак) (119 км)
Погода в Ali Al-Gharbi (Ирак) (132 км)
Погода в Ubaydah Bin Al Jarrah (Ирак) (142 км)
Погода в Azizyah (Ирак) (149 км)
Погода в Ayn Al-Tamar (Ирак) (159 км)
Погода в Kut-Al-Hai (Ирак) (166 км)
Погода в Al-Khalis (Ирак) (177 км)
Погода в Halabcha (Ирак) (180 км)

Пояснения к столбцам:

Ветер - указаны скорость ветра в м/с - средняя за 10 мин, порывы в срок и между сроками (в фигурных скобках) и направление, откуда дует ветер: С - северный, СВ - северо-восточный, В - восточный, ЮВ - юго-восточный, Ю - южный, ЮЗ - юго-западный, З - западный, СЗ - северо-западный.
Видимость - горизонтальная дальность видимости в метрах или километрах. При видимости от 1 до 10 км при отсутствии осадков обычно наблюдается дымка, при ухудшении видимости до 1 км и менее - туман. В сухую погоду видимость может ухудшаться дымом, пылью или мглою.
Явления - указаны атмосферные явления, наблюдавшиеся в срок или в последний час перед сроком; фигурными скобками обозначены явления, наблюдавшиеся между сроками (за 1-3 часа до срока); квадратными скобками обозначены град или гололедные отложения с указанием их диаметра в мм.
Облачность - указаны через наклонную черту общая и нижняя облачность в баллах и высота нижней границы облаков в метрах; квадратными скобками обозначены формы облаков: Ci - перистые, Cs - перисто-слоистые, Cc - перисто-кучевые, Ac - высококучевые, As - высокослоистые, Sc - слоисто-кучевые, Ns - слоисто-дождевые, Cu - кучевые, Cb - кучево-дождевые. Подробнее классификацию облаков см. в Атласе облаков (PDF).
T - Температура воздуха - температура, измеренная на высоте 2 м над землей.
Td - Температура точки росы - температура, при понижении до которой содержащийся в воздухе водяной пар достигнет насыщения.
f - Относительная влажность воздуха - влажноcть воздуха, измеренная на высоте 2 м над землей.
Te - Эффективная температура - температура, которую ощущает одетый по сезону человек в тени. Характеристика душности погоды. При расчете учитывается влияние влажности воздуха и скорости ветра на теплоощущения человека.
Tes - Эффективная температура на солнце - температура, которую ощущает человек, с поправкой на солнечный нагрев. Характеристика знойности погоды. Зависит от высоты солнца над горизонтом, облачности и скорости ветра. Ночью, в пасмурную погоду, а также при ветре 12 м/с и более поправка равна нулю.
P - Атмосферное давление - приведенное к уровню моря атмосферное давление.
Po - Атмосферное давление - измеренное на уровне метеостанции атмосферное давление.
Tmin - Минимальная температура - минимум температуры воздуха на высоте 2 м над землей.
Tmax - Максимальная температура - максимум температуры воздуха на высоте 2 м над землей.
R - Количество осадков - Количество выпавших осадков, мм. При наведении курсора мыши на число - период времени, за который выпало указанное количество осадков.
S - Снежный покров - Высота снежного покрова, см. При наведении курсора мыши на число - состояние снежного покрова и степень покрытия местности в баллах.